| time (UTC) | temp F | wind direction | speed knots | gust knots | rain 1hr in | rain 24hr in | rain mn in | humidity % | barometer mb |
| 20260906131537 | 73 | 68 | 0.9 | 2.6 | 0.00 | 0.00 | 0.00 | 88 | 1018.8 |
| 20260906130517 | 73 | 68 | 0.9 | 2.6 | 0.00 | 0.00 | 0.00 | 88 | 1019.0 |
| 20260906125517 | 73 | 0.0 | 1.7 | 0.00 | 0.00 | 0.00 | 88 | 1018.8 | |
| 20260906124517 | 73 | 45 | 0.9 | 2.6 | 0.00 | 0.00 | 0.00 | 88 | 1018.7 |
| 20260906123517 | 73 | 0.0 | 0.0 | 0.00 | 0.00 | 0.00 | 89 | 1018.5 | |
| 20260906122517 | 73 | 0.0 | 0.0 | 0.00 | 0.00 | 0.00 | 89 | 1018.3 | |
| 20260906121517 | 73 | 0.0 | 0.0 | 0.00 | 0.00 | 0.00 | 89 | 1018.2 | |
| 20260906120557 | 73 | 0.0 | 0.0 | 0.00 | 0.00 | 0.00 | 89 | 1017.9 | |
| 20260906115637 | 73 | 0.0 | 0.0 | 0.00 | 0.00 | 0.00 | 89 | 1018.0 | |
| 20260906114517 | 72 | 0.0 | 0.0 | 0.00 | 0.00 | 0.00 | 88 | 1017.7 | |
| 20260906113516 | 72 | 0.0 | 0.0 | 0.00 | 0.00 | 0.00 | 88 | 1017.5 | |
| 20260906112517 | 72 | 0.0 | 0.0 | 0.00 | 0.00 | 0.00 | 88 | 1017.3 | |
| 20260906111517 | 72 | 0.0 | 0.0 | 0.00 | 0.00 | 0.00 | 88 | 1017.3 | |
| 20260906110516 | 72 | 0.0 | 0.0 | 0.00 | 0.00 | 0.00 | 88 | 1017.3 | |
| 20260906105517 | 72 | 0.0 | 0.0 | 0.00 | 0.00 | 0.00 | 88 | 1017.3 | |
| 20260906104516 | 72 | 0.0 | 0.0 | 0.00 | 0.00 | 0.00 | 88 | 1017.3 | |
| 20260906103516 | 72 | 0.0 | 1.7 | 0.00 | 0.00 | 0.00 | 88 | 1017.2 | |
| 20260906102517 | 72 | 0.0 | 0.9 | 0.00 | 0.00 | 0.00 | 88 | 1016.9 | |
| 20260906101516 | 72 | 90 | 0.9 | 3.5 | 0.00 | 0.00 | 0.00 | 88 | 1016.8 |
| 20260906100516 | 72 | 0.0 | 0.9 | 0.00 | 0.00 | 0.00 | 88 | 1017.0 | |
| 20260906095516 | 72 | 90 | 0.9 | 2.6 | 0.00 | 0.00 | 0.00 | 88 | 1016.9 |
| 20260906094517 | 72 | 0.0 | 1.7 | 0.00 | 0.00 | 0.00 | 87 | 1016.9 | |
| 20260906093516 | 72 | 68 | 0.9 | 2.6 | 0.00 | 0.00 | 0.00 | 87 | 1016.6 |
| 20260906092516 | 72 | 0.0 | 2.6 | 0.00 | 0.00 | 0.00 | 87 | 1016.7 | |
| 20260906091516 | 72 | 90 | 0.9 | 2.6 | 0.00 | 0.00 | 0.00 | 87 | 1017.0 |
| 20260906090556 | 72 | 0.0 | 1.7 | 0.00 | 0.00 | 0.00 | 86 | 1017.0 | |
| 20260906085516 | 72 | 90 | 0.9 | 1.7 | 0.00 | 0.00 | 0.00 | 86 | 1016.9 |
| 20260906084556 | 72 | 0.0 | 3.5 | 0.00 | 0.00 | 0.00 | 86 | 1016.8 | |
| 20260906083516 | 72 | 0.0 | 1.7 | 0.00 | 0.00 | 0.00 | 85 | 1016.9 | |
| 20260906082536 | 72 | 68 | 0.9 | 1.7 | 0.00 | 0.00 | 0.00 | 85 | 1016.7 |
| 20260906081516 | 72 | 68 | 0.9 | 2.6 | 0.00 | 0.00 | 0.00 | 85 | 1016.8 |
| 20260906080516 | 73 | 0.0 | 1.7 | 0.00 | 0.00 | 0.00 | 84 | 1016.6 | |
| 20260906075516 | 73 | 90 | 0.9 | 3.5 | 0.00 | 0.00 | 0.00 | 84 | 1016.7 |
| 20260906074516 | 73 | 68 | 0.9 | 2.6 | 0.00 | 0.00 | 0.00 | 84 | 1016.9 |
| 20260906073516 | 73 | 90 | 1.7 | 5.2 | 0.00 | 0.00 | 0.00 | 84 | 1017.0 |
| 20260906072636 | 73 | 68 | 0.9 | 3.5 | 0.00 | 0.00 | 0.00 | 84 | 1017.0 |
| 20260906071516 | 74 | 68 | 1.7 | 3.5 | 0.00 | 0.00 | 0.00 | 84 | 1017.1 |
| 20260906070516 | 74 | 68 | 1.7 | 9.6 | 0.00 | 0.00 | 0.00 | 84 | 1017.1 |
| 20260906065516 | 75 | 0.0 | 2.6 | 0.00 | 0.00 | 0.00 | 84 | 1017.3 | |
| 20260906064516 | 75 | 0.0 | 0.0 | 0.00 | 0.00 | 0.00 | 83 | 1017.2 | |
| 20260906063516 | 75 | 0.0 | 0.0 | 0.00 | 0.00 | 0.00 | 83 | 1017.4 | |
| 20260906062516 | 75 | 68 | 0.9 | 3.5 | 0.00 | 0.00 | 0.00 | 83 | 1017.2 |
| 20260906061516 | 76 | 68 | 0.9 | 2.6 | 0.00 | 0.00 | 0.00 | 83 | 1017.0 |
| 20260906060516 | 76 | 90 | 0.9 | 3.5 | 0.00 | 0.00 | 0.00 | 82 | 1016.9 |
| 20260906055516 | 76 | 90 | 1.7 | 5.2 | 0.00 | 0.00 | 0.00 | 82 | 1016.9 |
| 20260906054516 | 77 | 45 | 0.9 | 3.5 | 0.00 | 0.00 | 0.00 | 82 | 1016.8 |
| 20260906053516 | 77 | 68 | 1.7 | 6.1 | 0.00 | 0.00 | 0.00 | 82 | 1016.8 |
| 20260906052516 | 77 | 68 | 0.9 | 6.1 | 0.00 | 0.00 | 0.00 | 81 | 1016.7 |
| 20260906051516 | 78 | 0.0 | 0.0 | 0.00 | 0.00 | 0.00 | 81 | 1016.7 | |
| 20260906050516 | 78 | 0.0 | 0.0 | 0.00 | 0.00 | 0.00 | 81 | 1016.4 | |
| 20260906045517 | 78 | 0.0 | 0.0 | 0.00 | 0.00 | 0.00 | 80 | 1016.4 | |
| 20260906044517 | 79 | 0.0 | 2.6 | 0.00 | 0.00 | 0.00 | 80 | 1016.3 | |
| 20260906043517 | 79 | 68 | 0.9 | 3.5 | 0.00 | 0.00 | 0.00 | 80 | 1016.3 |
| 20260906042517 | 79 | 90 | 1.7 | 6.1 | 0.00 | 0.00 | 0.00 | 80 | 1016.2 |
| 20260906041517 | 80 | 68 | 0.9 | 2.6 | 0.00 | 0.00 | 0.00 | 80 | 1016.1 |
| 20260906040516 | 80 | 68 | 0.9 | 2.6 | 0.00 | 0.00 | 0.00 | 79 | 1016.0 |
| 20260906035517 | 81 | 0.0 | 0.0 | 0.00 | 0.00 | 0.00 | 79 | 1015.9 | |
| 20260906034517 | 81 | 0.0 | 0.0 | 0.00 | 0.00 | 0.00 | 78 | 1015.9 | |
| 20260906033557 | 81 | 0.0 | 2.6 | 0.00 | 0.00 | 0.00 | 78 | 1016.0 | |
| 20260906032516 | 82 | 23 | 0.9 | 3.5 | 0.00 | 0.00 | 0.00 | 78 | 1016.0 |
| 20260906031517 | 82 | 45 | 1.7 | 3.5 | 0.00 | 0.00 | 0.00 | 77 | 1015.7 |
| 20260906030516 | 83 | 338 | 1.7 | 7.0 | 0.00 | 0.00 | 0.00 | 77 | 1015.6 |
| 20260906025517 | 83 | 45 | 1.7 | 7.8 | 0.00 | 0.00 | 0.00 | 77 | 1015.6 |
| 20260906024516 | 84 | 45 | 0.9 | 3.5 | 0.00 | 0.00 | 0.00 | 77 | 1015.5 |
| 20260906023516 | 84 | 45 | 1.7 | 3.5 | 0.00 | 0.00 | 0.00 | 77 | 1015.3 |
| 20260906022556 | 85 | 45 | 0.9 | 3.5 | 0.00 | 0.00 | 0.00 | 77 | 1015.0 |
| 20260906021516 | 85 | 0.0 | 1.7 | 0.00 | 0.00 | 0.00 | 77 | 1014.9 | |
| 20260906020557 | 86 | 0.0 | 0.0 | 0.00 | 0.00 | 0.00 | 76 | 1014.8 | |
| 20260906015516 | 86 | 0.0 | 0.0 | 0.00 | 0.00 | 0.00 | 76 | 1014.6 | |
| 20260906014516 | 87 | 0.0 | 0.9 | 0.00 | 0.00 | 0.00 | 76 | 1014.4 | |
| 20260906013516 | 87 | 0.0 | 1.7 | 0.00 | 0.00 | 0.00 | 75 | 1014.3 | |
| 20260906012616 | 88 | 0.0 | 0.9 | 0.00 | 0.00 | 0.00 | 74 | 1014.2 | |
| 20260906011537 | 88 | 0.0 | 0.0 | 0.00 | 0.00 | 0.00 | 73 | 1014.2 | |
| 20260906010516 | 89 | 0.0 | 0.0 | 0.00 | 0.00 | 0.00 | 72 | 1014.1 | |
| 20260906005516 | 90 | 0.0 | 0.9 | 0.00 | 0.00 | 0.00 | 71 | 1014.0 | |
| 20260906004516 | 90 | 0.0 | 0.0 | 0.00 | 0.00 | 0.00 | 70 | 1013.8 | |
| 20260906003516 | 91 | 0.0 | 0.0 | 0.00 | 0.00 | 0.00 | 69 | 1013.6 | |
| 20260906002516 | 92 | 0.0 | 0.0 | 0.00 | 0.00 | 0.00 | 68 | 1013.6 | |
| 20260906001536 | 93 | 0.0 | 0.0 | 0.00 | 0.00 | 0.00 | 67 | 1013.6 | |
| 20260906000516 | 93 | 0.0 | 0.0 | 0.00 | 0.00 | 0.00 | 66 | 1013.9 | |
| 20260905235516 | 94 | 0.0 | 0.9 | 0.00 | 0.00 | 0.00 | 65 | 1013.7 | |
| 20260905234536 | 94 | 0.0 | 1.7 | 0.00 | 0.00 | 0.00 | 65 | 1013.6 | |
| 20260905233516 | 94 | 0.0 | 0.9 | 0.00 | 0.00 | 0.00 | 65 | 1013.8 | |
| 20260905232516 | 94 | 0.0 | 0.9 | 0.00 | 0.00 | 0.00 | 65 | 1013.8 | |
| 20260905231516 | 94 | 23 | 0.9 | 1.7 | 0.00 | 0.00 | 0.00 | 64 | 1013.8 |
| 20260905230516 | 94 | 0.0 | 1.7 | 0.00 | 0.00 | 0.00 | 65 | 1013.7 | |
| 20260905225516 | 94 | 45 | 0.9 | 2.6 | 0.00 | 0.00 | 0.00 | 65 | 1013.6 |
| 20260905224516 | 94 | 315 | 0.9 | 2.6 | 0.00 | 0.00 | 0.00 | 63 | 1013.5 |
| 20260905223516 | 95 | 315 | 0.9 | 3.5 | 0.00 | 0.00 | 0.00 | 63 | 1013.5 |
| 20260905222516 | 95 | 0.0 | 1.7 | 0.00 | 0.00 | 0.00 | 61 | 1013.6 | |
| 20260905221516 | 95 | 315 | 0.9 | 3.5 | 0.00 | 0.00 | 0.00 | 61 | 1013.6 |
| 20260905220516 | 95 | 0 | 1.7 | 4.3 | 0.00 | 0.00 | 0.00 | 59 | 1013.5 |
| 20260905215516 | 96 | 315 | 0.9 | 4.3 | 0.00 | 0.00 | 0.00 | 60 | 1013.5 |
| 20260905214516 | 96 | 315 | 0.9 | 3.5 | 0.00 | 0.00 | 0.00 | 60 | 1013.6 |
| 20260905213516 | 96 | 315 | 0.9 | 2.6 | 0.00 | 0.00 | 0.00 | 61 | 1013.6 |
| 20260905212516 | 96 | 23 | 1.7 | 6.1 | 0.00 | 0.00 | 0.00 | 60 | 1013.5 |
| 20260905211516 | 97 | 338 | 0.9 | 3.5 | 0.00 | 0.00 | 0.00 | 60 | 1013.5 |
| 20260905210516 | 96 | 293 | 0.9 | 3.5 | 0.00 | 0.00 | 0.00 | 59 | 1013.6 |
| 20260905205516 | 96 | 293 | 0.9 | 2.6 | 0.00 | 0.00 | 0.00 | 60 | 1013.8 |
| 20260905204516 | 96 | 248 | 0.9 | 1.7 | 0.00 | 0.00 | 0.00 | 61 | 1013.8 |
| 20260905203515 | 96 | 315 | 1.7 | 3.5 | 0.00 | 0.00 | 0.00 | 61 | 1013.9 |
| 20260905202516 | 96 | 0 | 1.7 | 4.3 | 0.00 | 0.00 | 0.00 | 60 | 1013.9 |
| 20260905201516 | 95 | 270 | 1.7 | 3.5 | 0.00 | 0.00 | 0.00 | 61 | 1014.0 |
| 20260905200516 | 95 | 338 | 1.7 | 4.3 | 0.00 | 0.00 | 0.00 | 60 | 1014.0 |
| 20260905195515 | 95 | 293 | 0.9 | 1.7 | 0.00 | 0.00 | 0.00 | 60 | 1013.9 |
| 20260905194516 | 96 | 315 | 1.7 | 3.5 | 0.00 | 0.00 | 0.00 | 58 | 1014.1 |
| 20260905193516 | 97 | 338 | 0.9 | 4.3 | 0.00 | 0.00 | 0.00 | 56 | 1014.2 |
| 20260905192515 | 97 | 68 | 0.9 | 2.6 | 0.00 | 0.00 | 0.00 | 55 | 1014.3 |
| 20260905191516 | 97 | 248 | 1.7 | 3.5 | 0.00 | 0.00 | 0.00 | 57 | 1014.4 |
| 20260905190515 | 98 | 180 | 0.9 | 3.5 | 0.00 | 0.00 | 0.00 | 57 | 1014.4 |
| 20260905185515 | 97 | 248 | 1.7 | 2.6 | 0.00 | 0.00 | 0.00 | 57 | 1014.5 |
| 20260905184515 | 97 | 270 | 1.7 | 3.5 | 0.00 | 0.00 | 0.00 | 55 | 1014.7 |
| 20260905183516 | 97 | 270 | 1.7 | 7.8 | 0.00 | 0.00 | 0.00 | 55 | 1014.8 |
| 20260905182515 | 96 | 248 | 1.7 | 6.1 | 0.00 | 0.00 | 0.00 | 57 | 1014.8 |
| 20260905181515 | 97 | 0.0 | 1.7 | 0.00 | 0.00 | 0.00 | 59 | 1014.8 | |
| 20260905180535 | 97 | 68 | 1.7 | 3.5 | 0.00 | 0.00 | 0.00 | 57 | 1014.9 |
| 20260905175516 | 95 | 315 | 0.9 | 3.5 | 0.00 | 0.00 | 0.00 | 60 | 1015.0 |
| 20260905174515 | 96 | 315 | 0.9 | 1.7 | 0.00 | 0.00 | 0.00 | 59 | 1015.1 |
| 20260905173535 | 96 | 270 | 1.7 | 4.3 | 0.00 | 0.00 | 0.00 | 59 | 1015.1 |
| 20260905172515 | 96 | 270 | 0.9 | 3.5 | 0.00 | 0.00 | 0.00 | 60 | 1015.2 |
| 20260905171515 | 95 | 248 | 1.7 | 5.2 | 0.00 | 0.00 | 0.00 | 60 | 1015.3 |
| 20260905170515 | 95 | 248 | 0.9 | 2.6 | 0.00 | 0.00 | 0.00 | 64 | 1015.4 |
| 20260905165515 | 96 | 248 | 0.9 | 2.6 | 0.00 | 0.00 | 0.00 | 64 | 1015.6 |
| 20260905164535 | 95 | 0.0 | 1.7 | 0.00 | 0.00 | 0.00 | 62 | 1015.6 | |
| 20260905163515 | 94 | 0.0 | 1.7 | 0.00 | 0.00 | 0.00 | 64 | 1015.6 | |
| 20260905162515 | 93 | 338 | 0.9 | 1.7 | 0.00 | 0.00 | 0.00 | 63 | 1015.4 |
| 20260905161515 | 92 | 0.0 | 0.9 | 0.00 | 0.00 | 0.00 | 68 | 1015.5 | |
| 20260905160515 | 91 | 0.0 | 1.7 | 0.00 | 0.00 | 0.00 | 69 | 1015.6 | |
| 20260905155515 | 90 | 0.0 | 1.7 | 0.00 | 0.00 | 0.00 | 68 | 1015.7 | |
| 20260905154535 | 89 | 293 | 0.9 | 1.7 | 0.00 | 0.00 | 0.00 | 68 | 1015.6 |
| 20260905153515 | 86 | 0.0 | 0.0 | 0.00 | 0.00 | 0.00 | 75 | 1015.5 | |
| 20260905152515 | 85 | 0.0 | 0.0 | 0.00 | 0.00 | 0.00 | 79 | 1015.4 | |
| 20260905151517 | 85 | 0.0 | 0.0 | 0.00 | 0.00 | 0.00 | 78 | 1015.2 | |
| 20260905150537 | 84 | 0.0 | 1.7 | 0.00 | 0.00 | 0.00 | 79 | 1015.2 | |
| 20260905145537 | 84 | 0.0 | 1.7 | 0.00 | 0.00 | 0.00 | 80 | 1015.0 | |
| 20260905144517 | 84 | 0.0 | 0.9 | 0.00 | 0.00 | 0.00 | 81 | 1015.1 | |
| 20260905143517 | 83 | 0.0 | 0.9 | 0.00 | 0.00 | 0.00 | 83 | 1015.0 | |
| 20260905142517 | 83 | 0.0 | 0.0 | 0.00 | 0.00 | 0.00 | 82 | 1015.2 | |
| 20260905141517 | 82 | 0.0 | 0.9 | 0.00 | 0.00 | 0.00 | 83 | 1015.3 | |
| 20260905140517 | 82 | 0.0 | 0.9 | 0.00 | 0.00 | 0.00 | 84 | 1015.2 | |
| 20260905135517 | 81 | 0.0 | 0.0 | 0.00 | 0.00 | 0.00 | 85 | 1015.2 | |
| 20260905134517 | 80 | 0.0 | 0.9 | 0.00 | 0.00 | 0.00 | 86 | 1015.3 | |
| 20260905133537 | 80 | 0.0 | 0.0 | 0.00 | 0.00 | 0.00 | 87 | 1015.3 | |
| 20260905132517 | 79 | 0.0 | 0.9 | 0.00 | 0.00 | 0.00 | 88 | 1015.3 |